Time,TemperatureF,DewpointF,PressureIn,WindDirection,WindDirectionDegrees,WindSpeedMPH,WindSpeedGustMPH,Humidity,HourlyPrecipIn,Conditions,Clouds,dailyrainin,SoftwareType,DateUTC
2013-06-09 00:02:00,57.7,49.5,30.12,NNW,338,0.0,0.0,74,0.00,,---,0.00,VWS V14.01,2013-06-08 14:02:00,
2013-06-09 00:07:00,57.6,49.3,30.12,NNW,338,0.0,0.0,74,0.00,,---,0.00,VWS V14.01,2013-06-08 14:07:00,
2013-06-09 00:12:00,57.4,49.2,30.12,NNW,338,1.3,1.6,74,0.00,,---,0.00,VWS V14.01,2013-06-08 14:12:00,
2013-06-09 00:17:00,57.4,49.2,30.12,NNW,338,2.2,2.2,74,0.00,,---,0.00,VWS V14.01,2013-06-08 14:17:00,
2013-06-09 00:22:00,57.2,49.0,30.12,NNW,338,1.1,1.1,74,0.00,,---,0.00,VWS V14.01,2013-06-08 14:22:00,
2013-06-09 00:27:00,57.2,49.0,30.12,NW,315,1.6,1.6,74,0.00,,---,0.00,VWS V14.01,2013-06-08 14:27:00,
2013-06-09 00:32:00,57.2,49.0,30.12,NW,315,1.3,1.3,74,0.00,,---,0.00,VWS V14.01,2013-06-08 14:32:00,
2013-06-09 00:37:00,57.0,49.2,30.09,NW,315,0.9,0.9,75,0.00,,---,0.00,VWS V14.01,2013-06-08 14:37:00,
2013-06-09 00:42:00,57.0,49.2,30.09,NW,315,0.0,0.0,75,0.00,,---,0.00,VWS V14.01,2013-06-08 14:42:00,
2013-06-09 00:47:00,57.0,49.2,30.09,NW,315,0.0,0.0,75,0.00,,---,0.00,VWS V14.01,2013-06-08 14:47:00,
2013-06-09 00:52:00,57.0,49.2,30.09,NNW,338,0.0,0.0,75,0.00,,---,0.00,VWS V14.01,2013-06-08 14:52:00,
2013-06-09 00:57:00,56.8,49.4,30.09,NNW,338,0.0,0.0,76,0.00,,---,0.00,VWS V14.01,2013-06-08 14:57:00,
2013-06-09 01:02:00,56.8,49.7,30.09,NNW,338,2.0,2.0,77,0.00,,---,0.00,VWS V14.01,2013-06-08 15:02:00,
2013-06-09 01:07:00,56.7,49.5,30.09,NNW,338,0.0,0.0,77,0.00,,---,0.00,VWS V14.01,2013-06-08 15:07:00,
2013-06-09 01:12:00,56.7,49.5,30.09,NNW,338,2.0,2.0,77,0.00,,---,0.00,VWS V14.01,2013-06-08 15:12:00,
2013-06-09 01:17:00,56.5,49.4,30.09,NW,315,1.3,1.3,77,0.00,,---,0.00,VWS V14.01,2013-06-08 15:17:00,
2013-06-09 01:22:00,56.5,49.4,30.09,NNW,338,1.1,1.1,77,0.00,,---,0.00,VWS V14.01,2013-06-08 15:22:00,
2013-06-09 01:27:00,56.3,49.2,30.09,NNW,338,0.0,0.0,77,0.00,,---,0.00,VWS V14.01,2013-06-08 15:27:00,
2013-06-09 01:32:00,56.3,49.2,30.09,NNW,338,0.0,0.0,77,0.00,,---,0.00,VWS V14.01,2013-06-08 15:32:00,
2013-06-09 01:37:00,56.1,49.0,30.09,NNW,338,0.0,0.0,77,0.00,,---,0.00,VWS V14.01,2013-06-08 15:37:00,
2013-06-09 01:42:00,56.1,49.0,30.09,NNW,338,0.0,0.0,77,0.00,,---,0.00,VWS V14.01,2013-06-08 15:42:00,
2013-06-09 01:47:00,55.9,48.8,30.09,NNW,338,0.0,0.0,77,0.00,,---,0.00,VWS V14.01,2013-06-08 15:47:00,
2013-06-09 01:52:00,55.9,48.8,30.09,NW,315,0.9,0.9,77,0.00,,---,0.00,VWS V14.01,2013-06-08 15:52:00,
2013-06-09 01:57:00,55.9,48.8,30.09,NW,315,0.0,0.0,77,0.00,,---,0.00,VWS V14.01,2013-06-08 15:57:00,
2013-06-09 02:02:00,55.8,48.7,30.09,NNW,338,0.0,0.0,77,0.00,,---,0.00,VWS V14.01,2013-06-08 16:02:00,
2013-06-09 02:07:00,55.8,48.7,30.09,NW,315,1.1,1.1,77,0.00,,---,0.00,VWS V14.01,2013-06-08 16:07:00,
2013-06-09 02:12:00,55.8,48.7,30.09,NW,315,0.0,0.0,77,0.00,,---,0.00,VWS V14.01,2013-06-08 16:12:00,
2013-06-09 02:17:00,55.6,48.5,30.09,NW,315,0.0,0.0,77,0.00,,---,0.00,VWS V14.01,2013-06-08 16:17:00,
2013-06-09 02:22:00,55.4,48.3,30.09,NW,315,0.0,0.0,77,0.00,,---,0.00,VWS V14.01,2013-06-08 16:22:00,
2013-06-09 02:27:00,55.4,48.3,30.09,NNW,338,0.0,0.0,77,0.00,,---,0.00,VWS V14.01,2013-06-08 16:27:00,
2013-06-09 02:32:00,55.2,48.5,30.09,NNW,338,0.0,0.0,78,0.00,,---,0.00,VWS V14.01,2013-06-08 16:32:00,
2013-06-09 02:37:00,55.2,48.8,30.09,NNW,338,0.0,0.0,79,0.00,,---,0.00,VWS V14.01,2013-06-08 16:37:00,
2013-06-09 02:42:00,55.0,48.7,30.09,NNW,338,0.0,0.0,79,0.00,,---,0.00,VWS V14.01,2013-06-08 16:42:00,
2013-06-09 02:47:00,55.0,48.7,30.09,NNW,338,0.0,0.0,79,0.00,,---,0.00,VWS V14.01,2013-06-08 16:47:00,
2013-06-09 02:52:00,54.9,48.5,30.09,NNW,338,0.0,0.0,79,0.00,,---,0.00,VWS V14.01,2013-06-08 16:52:00,
2013-06-09 02:57:00,54.9,48.8,30.09,NNW,338,0.0,0.0,80,0.00,,---,0.00,VWS V14.01,2013-06-08 16:57:00,
2013-06-09 03:02:00,54.7,48.6,30.09,NNW,338,0.0,0.0,80,0.00,,---,0.00,VWS V14.01,2013-06-08 17:02:00,
2013-06-09 03:07:00,54.7,48.6,30.09,NNW,338,0.0,0.0,80,0.00,,---,0.00,VWS V14.01,2013-06-08 17:07:00,
2013-06-09 03:12:00,54.5,48.5,30.09,NNW,338,0.0,0.0,80,0.00,,---,0.00,VWS V14.01,2013-06-08 17:12:00,
2013-06-09 03:17:00,54.5,48.8,30.09,NNW,338,0.0,0.0,81,0.00,,---,0.00,VWS V14.01,2013-06-08 17:17:00,
2013-06-09 03:22:00,54.5,48.8,30.09,NNW,338,1.1,1.1,81,0.00,,---,0.00,VWS V14.01,2013-06-08 17:22:00,
2013-06-09 03:27:00,54.5,48.8,30.09,NNW,338,0.0,0.0,81,0.00,,---,0.00,VWS V14.01,2013-06-08 17:27:00,
2013-06-09 03:32:00,54.3,49.0,30.09,NNW,338,1.1,1.1,82,0.00,,---,0.00,VWS V14.01,2013-06-08 17:32:00,
2013-06-09 03:37:00,54.3,49.0,30.06,NNW,338,0.0,0.0,82,0.00,,---,0.00,VWS V14.01,2013-06-08 17:37:00,
2013-06-09 03:42:00,54.3,49.0,30.06,NNW,338,0.0,0.0,82,0.00,,---,0.00,VWS V14.01,2013-06-08 17:42:00,
2013-06-09 03:47:00,54.1,48.8,30.06,NNW,338,1.1,1.1,82,0.00,,---,0.00,VWS V14.01,2013-06-08 17:47:00,
2013-06-09 03:52:00,54.1,48.8,30.06,NNW,338,1.3,1.3,82,0.00,,---,0.00,VWS V14.01,2013-06-08 17:52:00,
2013-06-09 03:57:00,54.1,48.8,30.06,NNW,338,0.0,0.0,82,0.00,,---,0.00,VWS V14.01,2013-06-08 17:57:00,
2013-06-09 04:02:00,54.1,48.8,30.06,NNW,338,0.0,0.0,82,0.00,,---,0.00,VWS V14.01,2013-06-08 18:02:00,
2013-06-09 04:07:00,54.0,48.6,30.06,NNW,338,0.0,0.0,82,0.00,,---,0.00,VWS V14.01,2013-06-08 18:07:00,
2013-06-09 04:12:00,54.0,48.6,30.06,NNW,338,0.9,0.9,82,0.00,,---,0.00,VWS V14.01,2013-06-08 18:12:00,
2013-06-09 04:17:00,54.0,48.6,30.06,NNW,338,0.0,0.0,82,0.00,,---,0.00,VWS V14.01,2013-06-08 18:17:00,
2013-06-09 04:22:00,53.8,48.4,30.06,NNW,338,0.0,0.0,82,0.00,,---,0.00,VWS V14.01,2013-06-08 18:22:00,
2013-06-09 04:27:00,53.8,48.4,30.06,NNW,338,0.0,0.0,82,0.00,,---,0.00,VWS V14.01,2013-06-08 18:27:00,
2013-06-09 04:32:00,53.8,48.4,30.06,NNW,338,0.0,0.0,82,0.00,,---,0.00,VWS V14.01,2013-06-08 18:32:00,
2013-06-09 04:37:00,53.6,48.2,30.06,NNW,338,0.0,0.0,82,0.00,,---,0.00,VWS V14.01,2013-06-08 18:37:00,
2013-06-09 04:42:00,53.6,48.2,30.06,NNW,338,0.0,0.0,82,0.00,,---,0.00,VWS V14.01,2013-06-08 18:42:00,
2013-06-09 04:47:00,53.6,48.2,30.06,NNW,338,0.0,0.0,82,0.00,,---,0.00,VWS V14.01,2013-06-08 18:47:00,
2013-06-09 04:52:00,53.6,48.2,30.06,NNW,338,0.0,0.0,82,0.00,,---,0.00,VWS V14.01,2013-06-08 18:52:00,
2013-06-09 04:57:00,53.4,48.1,30.06,NNW,338,0.0,0.0,82,0.00,,---,0.00,VWS V14.01,2013-06-08 18:57:00,
2013-06-09 05:02:00,53.4,48.4,30.06,NNW,338,0.0,0.0,83,0.00,,---,0.00,VWS V14.01,2013-06-08 19:02:00,
2013-06-09 05:07:00,53.4,48.4,30.06,NNW,338,0.0,0.0,83,0.00,,---,0.00,VWS V14.01,2013-06-08 19:07:00,
2013-06-09 05:12:00,53.2,48.2,30.06,NNW,338,0.0,0.0,83,0.00,,---,0.00,VWS V14.01,2013-06-08 19:12:00,
2013-06-09 05:17:00,53.2,48.2,30.06,NNW,338,0.0,0.0,83,0.00,,---,0.00,VWS V14.01,2013-06-08 19:17:00,
2013-06-09 05:22:00,53.1,48.0,30.06,NNW,338,1.1,1.3,83,0.00,,---,0.00,VWS V14.01,2013-06-08 19:22:00,
2013-06-09 05:27:00,53.1,48.0,30.06,NNW,338,0.0,0.0,83,0.00,,---,0.00,VWS V14.01,2013-06-08 19:27:00,
2013-06-09 05:32:00,53.1,48.0,30.06,NNW,338,0.0,0.0,83,0.00,,---,0.00,VWS V14.01,2013-06-08 19:32:00,
2013-06-09 05:37:00,53.1,48.0,30.06,NNW,338,0.0,0.0,83,0.00,,---,0.00,VWS V14.01,2013-06-08 19:37:00,
2013-06-09 05:42:00,53.1,48.0,30.06,NNW,338,0.0,0.0,83,0.00,,---,0.00,VWS V14.01,2013-06-08 19:42:00,
2013-06-09 05:47:00,52.9,47.9,30.06,NNW,338,0.0,0.0,83,0.00,,---,0.00,VWS V14.01,2013-06-08 19:47:00,
2013-06-09 05:52:00,52.9,47.9,30.06,NNW,338,0.0,0.0,83,0.00,,---,0.00,VWS V14.01,2013-06-08 19:52:00,
2013-06-09 05:57:00,52.9,47.9,30.06,NNW,338,0.0,0.0,83,0.00,,---,0.00,VWS V14.01,2013-06-08 19:57:00,
2013-06-09 06:02:00,52.9,48.2,30.06,NNW,338,0.0,0.0,84,0.00,,---,0.00,VWS V14.01,2013-06-08 20:02:00,
2013-06-09 06:07:00,52.9,48.2,30.06,NNW,338,0.0,0.0,84,0.00,,---,0.00,VWS V14.01,2013-06-08 20:07:00,
2013-06-09 06:12:00,52.9,48.2,30.06,NNW,338,0.0,0.0,84,0.00,,---,0.00,VWS V14.01,2013-06-08 20:12:00,
2013-06-09 06:17:00,52.9,48.2,30.06,NNW,338,0.0,0.0,84,0.00,,---,0.00,VWS V14.01,2013-06-08 20:17:00,
2013-06-09 06:22:00,52.9,48.2,30.09,NNW,338,0.0,0.0,84,0.00,,---,0.00,VWS V14.01,2013-06-08 20:22:00,
2013-06-09 06:27:00,52.9,48.2,30.09,NNW,338,0.0,0.0,84,0.00,,---,0.00,VWS V14.01,2013-06-08 20:27:00,
2013-06-09 06:32:00,52.9,48.2,30.09,NNW,338,0.0,0.0,84,0.00,,---,0.00,VWS V14.01,2013-06-08 20:32:00,
2013-06-09 06:37:00,52.9,48.2,30.09,NNW,338,0.0,0.0,84,0.00,,---,0.00,VWS V14.01,2013-06-08 20:37:00,
2013-06-09 06:42:00,52.9,48.2,30.09,NNW,338,0.0,0.0,84,0.00,,---,0.00,VWS V14.01,2013-06-08 20:42:00,
2013-06-09 06:47:00,52.7,48.0,30.09,NNW,338,0.9,1.3,84,0.00,,---,0.00,VWS V14.01,2013-06-08 20:47:00,
2013-06-09 06:52:00,52.7,48.0,30.09,NNW,338,0.0,0.0,84,0.00,,---,0.00,VWS V14.01,2013-06-08 20:52:00,
2013-06-09 06:57:00,52.7,48.0,30.09,NNW,338,0.0,0.0,84,0.00,,---,0.00,VWS V14.01,2013-06-08 20:57:00,
2013-06-09 07:02:00,52.7,48.0,30.09,NNW,338,0.0,0.0,84,0.00,,---,0.00,VWS V14.01,2013-06-08 21:02:00,
2013-06-09 07:07:00,52.7,48.0,30.09,NNW,338,0.0,0.0,84,0.00,,---,0.00,VWS V14.01,2013-06-08 21:07:00,
2013-06-09 07:12:00,52.7,48.0,30.09,NNW,338,0.0,0.0,84,0.00,,---,0.00,VWS V14.01,2013-06-08 21:12:00,
2013-06-09 07:17:00,52.7,48.0,30.09,NNW,338,0.0,0.0,84,0.00,,---,0.00,VWS V14.01,2013-06-08 21:17:00,
2013-06-09 07:22:00,52.7,48.0,30.09,NNW,338,0.0,0.0,84,0.00,,---,0.00,VWS V14.01,2013-06-08 21:22:00,
2013-06-09 07:27:00,52.7,48.0,30.09,NNW,338,0.0,0.0,84,0.00,,---,0.00,VWS V14.01,2013-06-08 21:27:00,
2013-06-09 07:32:00,52.7,48.0,30.09,NNW,338,0.0,0.0,84,0.00,,---,0.00,VWS V14.01,2013-06-08 21:32:00,
2013-06-09 07:37:00,52.9,48.2,30.09,NNW,338,0.0,0.0,84,0.00,,---,0.00,VWS V14.01,2013-06-08 21:37:00,
2013-06-09 07:42:00,52.9,48.2,30.09,NNW,338,0.0,0.0,84,0.00,,---,0.00,VWS V14.01,2013-06-08 21:42:00,
2013-06-09 07:47:00,52.9,48.2,30.09,NNW,338,0.0,0.0,84,0.00,,---,0.00,VWS V14.01,2013-06-08 21:47:00,
2013-06-09 07:52:00,52.9,48.2,30.09,NNW,338,0.0,0.0,84,0.00,,---,0.00,VWS V14.01,2013-06-08 21:52:00,
2013-06-09 07:57:00,52.9,48.2,30.09,NNW,338,0.0,0.0,84,0.00,,---,0.00,VWS V14.01,2013-06-08 21:57:00,
2013-06-09 08:02:00,52.9,48.2,30.09,NNW,338,0.0,0.0,84,0.00,,---,0.00,VWS V14.01,2013-06-08 22:02:00,
2013-06-09 08:07:00,52.9,48.2,30.09,NNW,338,0.0,0.0,84,0.00,,---,0.00,VWS V14.01,2013-06-08 22:07:00,
2013-06-09 08:12:00,53.1,48.4,30.09,NNW,338,0.0,0.0,84,0.00,,---,0.00,VWS V14.01,2013-06-08 22:12:00,
2013-06-09 08:17:00,53.1,48.4,30.09,NNW,338,0.0,0.0,84,0.00,,---,0.00,VWS V14.01,2013-06-08 22:17:00,
2013-06-09 08:22:00,53.1,48.7,30.09,NNW,338,0.0,0.0,85,0.00,,---,0.00,VWS V14.01,2013-06-08 22:22:00,
2013-06-09 08:27:00,53.2,48.8,30.09,NNW,338,0.0,0.0,85,0.00,,---,0.00,VWS V14.01,2013-06-08 22:27:00,
2013-06-09 08:32:00,53.2,48.8,30.09,NNW,338,0.0,0.0,85,0.00,,---,0.00,VWS V14.01,2013-06-08 22:32:00,
2013-06-09 08:37:00,53.6,49.2,30.09,NNW,338,1.6,1.6,85,0.00,,---,0.00,VWS V14.01,2013-06-08 22:37:00,
2013-06-09 08:42:00,53.8,49.4,30.09,NNW,338,1.3,1.3,85,0.00,,---,0.00,VWS V14.01,2013-06-08 22:42:00,
2013-06-09 08:47:00,54.0,49.6,30.09,NNW,338,1.6,1.6,85,0.00,,---,0.00,VWS V14.01,2013-06-08 22:47:00,
2013-06-09 08:52:00,54.1,49.7,30.09,NNW,338,1.3,1.3,85,0.00,,---,0.00,VWS V14.01,2013-06-08 22:52:00,
2013-06-09 08:57:00,54.1,49.7,30.09,NNW,338,0.0,0.0,85,0.00,,---,0.00,VWS V14.01,2013-06-08 22:57:00,
2013-06-09 09:02:00,54.1,49.7,30.09,NNW,338,1.3,1.3,85,0.00,,---,0.00,VWS V14.01,2013-06-08 23:02:00,
2013-06-09 09:07:00,54.5,50.4,30.12,NNW,338,0.0,0.0,86,0.00,,---,0.00,VWS V14.01,2013-06-08 23:07:00,
2013-06-09 09:12:00,54.5,50.4,30.12,NNW,338,0.0,0.0,86,0.00,,---,0.00,VWS V14.01,2013-06-08 23:12:00,
2013-06-09 09:17:00,54.9,51.1,30.12,NNW,338,0.0,0.0,87,0.00,,---,0.00,VWS V14.01,2013-06-08 23:17:00,
2013-06-09 09:22:00,55.0,51.2,30.12,NNW,338,0.0,0.0,87,0.00,,---,0.00,VWS V14.01,2013-06-08 23:22:00,
2013-06-09 09:27:00,55.4,51.6,30.12,NNW,338,0.0,0.0,87,0.00,,---,0.00,VWS V14.01,2013-06-08 23:27:00,
2013-06-09 09:32:00,55.8,52.0,30.12,North,0,1.1,2.0,87,0.00,,---,0.00,VWS V14.01,2013-06-08 23:32:00,
2013-06-09 09:37:00,55.9,52.4,30.09,North,0,0.0,0.0,88,0.00,,---,0.00,VWS V14.01,2013-06-08 23:37:00,
2013-06-09 09:42:00,56.5,53.0,30.09,NNW,338,0.0,0.0,88,0.00,,---,0.00,VWS V14.01,2013-06-08 23:42:00,
2013-06-09 09:47:00,56.7,53.2,30.09,NW,315,0.0,2.7,88,0.00,,---,0.00,VWS V14.01,2013-06-08 23:47:00,
2013-06-09 09:52:00,57.2,53.4,30.09,North,0,1.3,1.3,87,0.00,,---,0.00,VWS V14.01,2013-06-08 23:52:00,
2013-06-09 09:57:00,57.4,53.5,30.09,NW,315,1.3,1.3,87,0.00,,---,0.00,VWS V14.01,2013-06-08 23:57:00,
2013-06-09 10:02:00,57.7,53.9,30.09,NNW,338,1.3,1.3,87,0.00,,---,0.00,VWS V14.01,2013-06-09 00:02:00,
2013-06-09 10:07:00,58.1,53.9,30.09,NNW,338,0.0,0.0,86,0.00,,---,0.00,VWS V14.01,2013-06-09 00:07:00,
2013-06-09 10:12:00,58.6,54.5,30.09,NNW,338,0.0,0.9,86,0.00,,---,0.00,VWS V14.01,2013-06-09 00:12:00,
2013-06-09 10:17:00,59.0,54.5,30.09,NW,315,1.6,2.2,85,0.00,,---,0.00,VWS V14.01,2013-06-09 00:17:00,
2013-06-09 10:22:00,59.4,54.5,30.09,North,0,0.9,0.9,84,0.00,,---,0.00,VWS V14.01,2013-06-09 00:22:00,
2013-06-09 10:27:00,59.7,54.9,30.09,NNW,338,2.7,2.7,84,0.00,,---,0.00,VWS V14.01,2013-06-09 00:27:00,
2013-06-09 10:32:00,60.3,55.1,30.09,NNW,338,3.1,3.1,83,0.00,,---,0.00,VWS V14.01,2013-06-09 00:32:00,
2013-06-09 10:37:00,60.6,55.1,30.06,NW,315,3.1,3.1,82,0.00,,---,0.00,VWS V14.01,2013-06-09 00:37:00,
2013-06-09 10:42:00,61.2,55.3,30.06,North,0,2.7,4.3,81,0.00,,---,0.00,VWS V14.01,2013-06-09 00:42:00,
2013-06-09 10:47:00,61.3,55.1,30.06,North,0,0.0,0.0,80,0.00,,---,0.00,VWS V14.01,2013-06-09 00:47:00,
2013-06-09 10:52:00,61.9,55.3,30.06,North,0,1.6,1.6,79,0.00,,---,0.00,VWS V14.01,2013-06-09 00:52:00,
2013-06-09 10:57:00,61.9,55.0,30.06,North,0,2.5,2.5,78,0.00,,---,0.00,VWS V14.01,2013-06-09 00:57:00,
2013-06-09 11:02:00,62.4,55.1,30.06,NNE,22,2.0,2.7,77,0.00,,---,0.00,VWS V14.01,2013-06-09 01:02:00,
2013-06-09 11:07:00,62.6,54.6,30.06,NNE,22,2.2,2.2,75,0.00,,---,0.00,VWS V14.01,2013-06-09 01:07:00,
2013-06-09 11:12:00,63.0,54.5,30.06,NNE,22,1.6,1.6,74,0.00,,---,0.00,VWS V14.01,2013-06-09 01:12:00,
2013-06-09 11:17:00,63.3,54.9,30.06,NE,45,2.9,2.9,74,0.00,,---,0.00,VWS V14.01,2013-06-09 01:17:00,
2013-06-09 11:22:00,63.5,55.1,30.06,NNW,338,3.8,3.8,74,0.00,,---,0.00,VWS V14.01,2013-06-09 01:22:00,
2013-06-09 11:27:00,63.7,54.9,30.06,SE,135,0.9,0.9,73,0.00,,---,0.00,VWS V14.01,2013-06-09 01:27:00,
2013-06-09 11:32:00,64.0,55.2,30.06,WNW,292,3.4,3.4,73,0.00,,---,0.00,VWS V14.01,2013-06-09 01:32:00,
2013-06-09 11:37:00,64.4,55.2,30.03,NNE,22,3.4,3.4,72,0.00,,---,0.00,VWS V14.01,2013-06-09 01:37:00,
2013-06-09 11:42:00,64.4,54.8,30.03,WSW,248,2.5,2.5,71,0.00,,---,0.00,VWS V14.01,2013-06-09 01:42:00,
2013-06-09 11:47:00,64.4,54.8,30.03,East,90,1.3,5.6,71,0.00,,---,0.00,VWS V14.01,2013-06-09 01:47:00,
2013-06-09 11:52:00,64.4,54.8,30.03,NNW,338,4.7,4.7,71,0.00,,---,0.00,VWS V14.01,2013-06-09 01:52:00,
2013-06-09 11:57:00,65.1,55.9,30.03,North,0,5.4,5.4,72,0.00,,---,0.00,VWS V14.01,2013-06-09 01:57:00,
2013-06-09 12:02:00,65.3,56.0,30.03,East,90,1.3,2.5,72,0.00,,---,0.00,VWS V14.01,2013-06-09 02:02:00,
2013-06-09 12:07:00,65.5,55.8,30.03,NNW,338,1.6,1.6,71,0.00,,---,0.00,VWS V14.01,2013-06-09 02:07:00,
2013-06-09 12:12:00,65.8,56.2,30.03,NE,45,2.5,3.1,71,0.00,,---,0.00,VWS V14.01,2013-06-09 02:12:00,
2013-06-09 12:17:00,65.8,56.2,30.03,NW,315,2.5,2.5,71,0.00,,---,0.00,VWS V14.01,2013-06-09 02:17:00,
2013-06-09 12:22:00,66.0,56.0,30.03,North,0,2.5,2.5,70,0.00,,---,0.00,VWS V14.01,2013-06-09 02:22:00,
2013-06-09 12:27:00,66.0,56.4,30.03,SW,225,3.1,3.1,71,0.00,,---,0.00,VWS V14.01,2013-06-09 02:27:00,
2013-06-09 12:32:00,65.8,56.2,30.03,NE,45,1.3,4.7,71,0.00,,---,0.00,VWS V14.01,2013-06-09 02:32:00,
2013-06-09 12:37:00,65.7,56.0,30.00,NE,45,3.6,3.6,71,0.00,,---,0.00,VWS V14.01,2013-06-09 02:37:00,
2013-06-09 12:42:00,66.2,56.1,30.00,SE,135,0.9,1.6,70,0.00,,---,0.00,VWS V14.01,2013-06-09 02:42:00,
2013-06-09 12:47:00,66.2,56.1,30.00,North,0,1.1,1.1,70,0.00,,---,0.00,VWS V14.01,2013-06-09 02:47:00,
2013-06-09 12:52:00,66.2,56.1,30.00,SSW,202,3.4,3.4,70,0.00,,---,0.00,VWS V14.01,2013-06-09 02:52:00,
2013-06-09 12:57:00,66.0,56.0,30.00,East,90,0.0,0.0,70,0.00,,---,0.00,VWS V14.01,2013-06-09 02:57:00,
2013-06-09 13:02:00,65.8,56.2,30.00,East,90,0.0,1.1,71,0.00,,---,0.00,VWS V14.01,2013-06-09 03:02:00,
2013-06-09 13:07:00,65.7,56.0,30.00,NNW,338,1.1,1.1,71,0.00,,---,0.00,VWS V14.01,2013-06-09 03:07:00,
2013-06-09 13:12:00,65.5,56.2,30.00,SE,135,1.1,1.1,72,0.00,,---,0.00,VWS V14.01,2013-06-09 03:12:00,
2013-06-09 13:17:00,65.3,56.0,30.00,SE,135,0.0,2.5,72,0.00,,---,0.00,VWS V14.01,2013-06-09 03:17:00,
2013-06-09 13:22:00,65.5,56.2,30.00,SE,135,1.3,1.6,72,0.00,,---,0.00,VWS V14.01,2013-06-09 03:22:00,
2013-06-09 13:27:00,65.5,55.8,30.00,SE,135,0.0,0.0,71,0.00,,---,0.00,VWS V14.01,2013-06-09 03:27:00,
2013-06-09 13:32:00,65.7,56.4,30.00,ENE,68,2.5,2.5,72,0.00,,---,0.00,VWS V14.01,2013-06-09 03:32:00,
2013-06-09 13:37:00,65.7,56.0,30.00,SW,225,1.3,2.0,71,0.00,,---,0.00,VWS V14.01,2013-06-09 03:37:00,
2013-06-09 13:42:00,65.7,56.4,30.00,SSE,158,0.0,0.0,72,0.00,,---,0.00,VWS V14.01,2013-06-09 03:42:00,
2013-06-09 13:47:00,65.7,56.4,30.00,NW,315,1.1,1.1,72,0.00,,---,0.00,VWS V14.01,2013-06-09 03:47:00,
2013-06-09 13:52:00,65.5,56.2,30.00,South,180,0.9,1.3,72,0.00,,---,0.00,VWS V14.01,2013-06-09 03:52:00,
2013-06-09 13:57:00,65.5,56.2,30.00,SE,135,1.1,1.1,72,0.00,,---,0.00,VWS V14.01,2013-06-09 03:57:00,
2013-06-09 14:01:00,65.5,56.2,30.00,NW,315,0.0,0.0,72,0.00,,---,0.00,VWS V14.01,2013-06-09 04:01:00,
2013-06-09 14:02:00,65.5,56.2,30.00,SE,135,2.0,2.0,72,0.00,,---,0.00,VWS V14.01,2013-06-09 04:02:00,
2013-06-09 14:07:00,65.1,55.9,30.00,SE,135,0.0,0.0,72,0.00,,---,0.00,VWS V14.01,2013-06-09 04:07:00,
2013-06-09 14:12:00,65.1,55.9,29.97,East,90,1.1,1.1,72,0.00,,---,0.00,VWS V14.01,2013-06-09 04:12:00,
2013-06-09 14:17:00,65.1,56.3,29.97,ESE,112,0.9,1.3,73,0.00,,---,0.00,VWS V14.01,2013-06-09 04:17:00,
2013-06-09 14:22:00,64.8,55.9,30.00,ESE,112,2.2,2.2,73,0.00,,---,0.00,VWS V14.01,2013-06-09 04:22:00,
2013-06-09 14:27:00,64.8,55.9,30.00,ENE,68,0.9,0.9,73,0.00,,---,0.00,VWS V14.01,2013-06-09 04:27:00,
2013-06-09 14:32:00,64.8,55.9,30.00,East,90,0.0,0.0,73,0.00,,---,0.00,VWS V14.01,2013-06-09 04:32:00,
2013-06-09 14:37:00,64.6,56.1,30.00,SW,225,0.0,1.1,74,0.00,,---,0.00,VWS V14.01,2013-06-09 04:37:00,
2013-06-09 14:42:00,64.6,56.1,30.00,ESE,112,0.0,0.9,74,0.00,,---,0.00,VWS V14.01,2013-06-09 04:42:00,
2013-06-09 14:47:00,64.4,56.3,30.00,SE,135,0.0,0.0,75,0.00,,---,0.00,VWS V14.01,2013-06-09 04:47:00,
2013-06-09 14:52:00,64.4,56.3,30.00,ESE,112,2.0,2.0,75,0.00,,---,0.00,VWS V14.01,2013-06-09 04:52:00,
2013-06-09 14:57:00,64.4,56.7,30.00,SE,135,1.6,1.6,76,0.00,,---,0.00,VWS V14.01,2013-06-09 04:57:00,
2013-06-09 15:02:00,64.2,56.5,30.00,East,90,0.0,0.0,76,0.00,,---,0.00,VWS V14.01,2013-06-09 05:02:00,
2013-06-09 15:07:00,64.0,56.7,29.97,ESE,112,2.2,2.2,77,0.00,,---,0.00,VWS V14.01,2013-06-09 05:07:00,
2013-06-09 15:12:00,63.9,56.5,29.97,East,90,1.1,1.1,77,0.00,,---,0.00,VWS V14.01,2013-06-09 05:12:00,
2013-06-09 15:17:00,63.9,56.5,29.97,ENE,68,0.9,0.9,77,0.00,,---,0.00,VWS V14.01,2013-06-09 05:17:00,
2013-06-09 15:22:00,63.7,56.3,29.97,NE,45,0.0,2.0,77,0.00,,---,0.00,VWS V14.01,2013-06-09 05:22:00,
2013-06-09 15:27:00,63.5,56.2,29.97,ESE,112,1.3,1.3,77,0.00,,---,0.00,VWS V14.01,2013-06-09 05:27:00,
2013-06-09 15:32:00,63.3,56.0,29.97,East,90,0.0,0.0,77,0.00,,---,0.00,VWS V14.01,2013-06-09 05:32:00,
2013-06-09 15:37:00,63.3,56.0,29.97,East,90,0.0,0.0,77,0.00,,---,0.00,VWS V14.01,2013-06-09 05:37:00,
2013-06-09 15:42:00,63.1,56.2,29.97,East,90,0.0,0.0,78,0.00,,---,0.00,VWS V14.01,2013-06-09 05:42:00,
2013-06-09 15:47:00,63.0,56.0,29.97,ENE,68,0.0,0.0,78,0.00,,---,0.00,VWS V14.01,2013-06-09 05:47:00,
2013-06-09 15:52:00,63.0,56.0,29.97,ESE,112,0.0,0.0,78,0.00,,---,0.00,VWS V14.01,2013-06-09 05:52:00,
2013-06-09 15:57:00,63.0,56.0,29.97,ESE,112,1.3,1.3,78,0.00,,---,0.00,VWS V14.01,2013-06-09 05:57:00,
2013-06-09 16:02:00,62.8,55.8,29.97,NE,45,0.0,0.0,78,0.00,,---,0.00,VWS V14.01,2013-06-09 06:02:00,
2013-06-09 16:07:00,62.6,55.7,29.97,East,90,0.0,0.0,78,0.00,,---,0.00,VWS V14.01,2013-06-09 06:07:00,
2013-06-09 16:12:00,62.6,56.0,29.97,East,90,0.0,0.0,79,0.00,,---,0.00,VWS V14.01,2013-06-09 06:12:00,
2013-06-09 16:17:00,62.4,55.8,29.97,East,90,0.0,0.0,79,0.00,,---,0.00,VWS V14.01,2013-06-09 06:17:00,
2013-06-09 16:22:00,62.2,55.7,29.97,East,90,0.0,0.0,79,0.00,,---,0.00,VWS V14.01,2013-06-09 06:22:00,
2013-06-09 16:27:00,62.2,56.0,29.97,ENE,68,0.0,0.0,80,0.00,,---,0.00,VWS V14.01,2013-06-09 06:27:00,
2013-06-09 16:32:00,62.1,55.8,29.97,NE,45,0.0,0.0,80,0.00,,---,0.00,VWS V14.01,2013-06-09 06:32:00,
2013-06-09 16:37:00,61.9,55.7,29.97,NW,315,1.1,1.1,80,0.00,,---,0.00,VWS V14.01,2013-06-09 06:37:00,
2013-06-09 16:42:00,61.7,55.5,29.97,SE,135,0.0,0.0,80,0.00,,---,0.00,VWS V14.01,2013-06-09 06:42:00,
2013-06-09 16:47:00,61.7,55.5,29.97,North,0,2.5,2.5,80,0.00,,---,0.00,VWS V14.01,2013-06-09 06:47:00,
2013-06-09 16:52:00,61.5,55.3,29.97,SE,135,0.0,0.0,80,0.00,,---,0.00,VWS V14.01,2013-06-09 06:52:00,
2013-06-09 16:57:00,61.3,55.5,29.97,NE,45,1.1,1.1,81,0.00,,---,0.00,VWS V14.01,2013-06-09 06:57:00,
2013-06-09 17:02:00,61.3,55.5,29.97,NNE,22,0.0,0.0,81,0.00,,---,0.00,VWS V14.01,2013-06-09 07:02:00,
2013-06-09 17:07:00,61.3,55.5,29.94,North,0,0.9,0.9,81,0.00,,---,0.00,VWS V14.01,2013-06-09 07:07:00,
2013-06-09 17:12:00,61.2,55.3,29.94,NE,45,0.0,0.0,81,0.00,,---,0.00,VWS V14.01,2013-06-09 07:12:00,
2013-06-09 17:17:00,61.2,55.3,29.94,NNW,338,0.0,0.0,81,0.00,,---,0.00,VWS V14.01,2013-06-09 07:17:00,
2013-06-09 17:22:00,61.0,55.1,29.97,North,0,2.2,2.2,81,0.00,,---,0.00,VWS V14.01,2013-06-09 07:22:00,
2013-06-09 17:27:00,61.0,55.1,29.97,ENE,68,0.0,0.9,81,0.00,,---,0.00,VWS V14.01,2013-06-09 07:27:00,
2013-06-09 17:32:00,61.0,55.5,29.97,NE,45,0.0,0.0,82,0.00,,---,0.00,VWS V14.01,2013-06-09 07:32:00,
2013-06-09 17:37:00,60.8,55.3,29.97,East,90,0.0,0.0,82,0.00,,---,0.00,VWS V14.01,2013-06-09 07:37:00,
2013-06-09 17:42:00,60.8,55.3,29.97,ENE,68,0.0,0.0,82,0.00,,---,0.00,VWS V14.01,2013-06-09 07:42:00,
2013-06-09 17:47:00,60.6,55.4,29.97,ENE,68,0.0,0.0,83,0.00,,---,0.00,VWS V14.01,2013-06-09 07:47:00,
2013-06-09 17:52:00,60.4,55.3,29.97,ENE,68,0.0,0.0,83,0.00,,---,0.00,VWS V14.01,2013-06-09 07:52:00,
2013-06-09 17:57:00,60.4,55.3,29.97,NE,45,0.0,0.0,83,0.00,,---,0.00,VWS V14.01,2013-06-09 07:57:00,
2013-06-09 18:02:00,60.3,55.1,29.97,NE,45,0.0,0.0,83,0.00,,---,0.00,VWS V14.01,2013-06-09 08:02:00,
2013-06-09 18:07:00,60.3,55.1,29.97,NE,45,0.0,0.0,83,0.00,,---,0.00,VWS V14.01,2013-06-09 08:07:00,
2013-06-09 18:12:00,60.3,55.1,29.97,NE,45,0.0,0.0,83,0.00,,---,0.00,VWS V14.01,2013-06-09 08:12:00,
2013-06-09 18:17:00,60.1,54.9,29.97,NE,45,0.0,0.0,83,0.00,,---,0.00,VWS V14.01,2013-06-09 08:17:00,
2013-06-09 18:22:00,60.1,54.9,29.97,NE,45,0.0,0.0,83,0.00,,---,0.00,VWS V14.01,2013-06-09 08:22:00,
2013-06-09 18:27:00,59.9,54.7,29.97,NNW,338,0.0,0.0,83,0.00,,---,0.00,VWS V14.01,2013-06-09 08:27:00,
2013-06-09 18:32:00,59.7,54.6,29.97,North,0,1.1,1.1,83,0.00,,---,0.00,VWS V14.01,2013-06-09 08:32:00,
2013-06-09 18:37:00,59.7,54.6,29.97,NNW,338,0.0,0.0,83,0.00,,---,0.00,VWS V14.01,2013-06-09 08:37:00,
2013-06-09 18:42:00,59.7,54.6,29.97,NW,315,0.0,0.0,83,0.00,,---,0.00,VWS V14.01,2013-06-09 08:42:00,
2013-06-09 18:47:00,59.5,54.7,29.97,NNE,22,0.0,0.0,84,0.00,,---,0.00,VWS V14.01,2013-06-09 08:47:00,
2013-06-09 18:52:00,59.5,54.7,29.97,NNE,22,0.0,0.0,84,0.00,,---,0.00,VWS V14.01,2013-06-09 08:52:00,
2013-06-09 18:57:00,59.4,54.5,29.97,NNE,22,0.0,0.0,84,0.00,,---,0.00,VWS V14.01,2013-06-09 08:57:00,
2013-06-09 19:02:00,59.4,54.5,29.97,NE,45,0.0,0.0,84,0.00,,---,0.00,VWS V14.01,2013-06-09 09:02:00,
2013-06-09 19:07:00,59.2,54.4,29.97,NE,45,0.0,0.0,84,0.00,,---,0.00,VWS V14.01,2013-06-09 09:07:00,
2013-06-09 19:12:00,59.2,54.4,29.97,SE,135,0.0,0.0,84,0.00,,---,0.00,VWS V14.01,2013-06-09 09:12:00,
2013-06-09 19:17:00,59.0,54.2,29.97,SE,135,0.0,0.0,84,0.00,,---,0.00,VWS V14.01,2013-06-09 09:17:00,
2013-06-09 19:22:00,59.0,54.2,29.97,SE,135,0.0,0.0,84,0.00,,---,0.00,VWS V14.01,2013-06-09 09:22:00,
2013-06-09 19:27:00,58.8,54.3,29.97,SE,135,0.0,0.0,85,0.00,,---,0.00,VWS V14.01,2013-06-09 09:27:00,
2013-06-09 19:32:00,58.8,54.3,29.97,SE,135,0.0,0.0,85,0.00,,---,0.00,VWS V14.01,2013-06-09 09:32:00,
2013-06-09 19:37:00,58.8,54.3,29.97,WNW,292,0.0,0.0,85,0.00,,---,0.00,VWS V14.01,2013-06-09 09:37:00,
2013-06-09 19:42:00,58.8,54.3,29.97,West,270,1.1,1.1,85,0.00,,---,0.00,VWS V14.01,2013-06-09 09:42:00,
2013-06-09 19:47:00,58.6,54.2,29.97,SSE,158,0.0,0.0,85,0.00,,---,0.00,VWS V14.01,2013-06-09 09:47:00,
2013-06-09 19:52:00,58.6,54.2,29.97,East,90,0.0,0.0,85,0.00,,---,0.00,VWS V14.01,2013-06-09 09:52:00,
2013-06-09 19:57:00,58.5,54.3,29.97,East,90,0.0,0.0,86,0.00,,---,0.00,VWS V14.01,2013-06-09 09:57:00,
2013-06-09 20:02:00,58.5,54.3,29.97,SW,225,0.0,0.0,86,0.00,,---,0.00,VWS V14.01,2013-06-09 10:02:00,
2013-06-09 20:07:00,58.3,54.1,29.97,South,180,0.0,0.0,86,0.00,,---,0.00,VWS V14.01,2013-06-09 10:07:00,
2013-06-09 20:12:00,58.3,54.1,29.97,South,180,0.0,0.0,86,0.00,,---,0.00,VWS V14.01,2013-06-09 10:12:00,
2013-06-09 20:17:00,58.3,54.1,29.97,South,180,0.0,0.0,86,0.00,,---,0.00,VWS V14.01,2013-06-09 10:17:00,
2013-06-09 20:22:00,58.1,53.9,29.97,South,180,0.0,0.0,86,0.00,,---,0.00,VWS V14.01,2013-06-09 10:22:00,
2013-06-09 20:27:00,58.1,53.9,29.97,West,270,0.0,0.0,86,0.00,,---,0.00,VWS V14.01,2013-06-09 10:27:00,
2013-06-09 20:32:00,58.1,53.9,29.97,SW,225,0.0,0.0,86,0.00,,---,0.00,VWS V14.01,2013-06-09 10:32:00,
2013-06-09 20:37:00,58.1,54.3,29.97,SW,225,0.0,0.0,87,0.00,,---,0.00,VWS V14.01,2013-06-09 10:37:00,
2013-06-09 20:42:00,57.9,54.1,29.97,SW,225,0.0,0.0,87,0.00,,---,0.00,VWS V14.01,2013-06-09 10:42:00,
2013-06-09 20:47:00,57.9,54.1,29.97,SW,225,0.0,0.0,87,0.00,,---,0.00,VWS V14.01,2013-06-09 10:47:00,
2013-06-09 20:52:00,57.7,53.9,29.94,SW,225,0.0,0.0,87,0.00,,---,0.00,VWS V14.01,2013-06-09 10:52:00,
2013-06-09 20:57:00,57.7,53.9,29.94,SW,225,0.0,0.0,87,0.00,,---,0.00,VWS V14.01,2013-06-09 10:57:00,
2013-06-09 21:02:00,57.7,53.9,29.94,NW,315,0.0,0.0,87,0.00,,---,0.00,VWS V14.01,2013-06-09 11:02:00,
2013-06-09 21:07:00,57.6,53.7,29.94,ESE,112,0.0,0.0,87,0.00,,---,0.00,VWS V14.01,2013-06-09 11:07:00,
2013-06-09 21:12:00,57.6,53.7,29.94,ENE,68,0.0,0.0,87,0.00,,---,0.00,VWS V14.01,2013-06-09 11:12:00,
2013-06-09 21:17:00,57.6,53.7,29.94,ENE,68,0.0,0.0,87,0.00,,---,0.00,VWS V14.01,2013-06-09 11:17:00,
2013-06-09 21:22:00,57.4,53.5,29.97,West,270,0.0,0.0,87,0.00,,---,0.00,VWS V14.01,2013-06-09 11:22:00,
2013-06-09 21:27:00,57.4,53.9,29.97,West,270,0.0,0.0,88,0.00,,---,0.00,VWS V14.01,2013-06-09 11:27:00,
2013-06-09 21:32:00,57.2,53.7,29.97,West,270,0.0,0.0,88,0.00,,---,0.00,VWS V14.01,2013-06-09 11:32:00,
2013-06-09 21:37:00,57.2,53.7,29.97,West,270,0.0,0.0,88,0.00,,---,0.00,VWS V14.01,2013-06-09 11:37:00,
2013-06-09 21:42:00,57.0,53.5,29.97,WNW,292,0.0,0.0,88,0.00,,---,0.00,VWS V14.01,2013-06-09 11:42:00,
2013-06-09 21:47:00,57.0,53.5,29.97,WNW,292,0.0,0.0,88,0.00,,---,0.00,VWS V14.01,2013-06-09 11:47:00,
2013-06-09 21:52:00,57.0,53.5,29.97,West,270,0.9,0.9,88,0.00,,---,0.00,VWS V14.01,2013-06-09 11:52:00,
2013-06-09 21:57:00,56.8,53.3,29.97,West,270,0.0,0.0,88,0.00,,---,0.00,VWS V14.01,2013-06-09 11:57:00,
2013-06-09 22:02:00,56.8,53.3,29.97,West,270,0.0,0.0,88,0.00,,---,0.00,VWS V14.01,2013-06-09 12:02:00,
2013-06-09 22:07:00,56.8,53.3,29.97,WNW,292,0.0,0.0,88,0.00,,---,0.00,VWS V14.01,2013-06-09 12:07:00,
2013-06-09 22:12:00,56.7,53.2,29.97,WNW,292,0.0,0.0,88,0.00,,---,0.00,VWS V14.01,2013-06-09 12:12:00,
2013-06-09 22:17:00,56.7,53.2,29.97,WNW,292,0.0,0.0,88,0.00,,---,0.00,VWS V14.01,2013-06-09 12:17:00,
2013-06-09 22:22:00,56.7,53.2,29.97,WNW,292,1.6,1.6,88,0.00,,---,0.00,VWS V14.01,2013-06-09 12:22:00,
2013-06-09 22:27:00,56.7,53.2,29.97,NW,315,1.1,1.1,88,0.00,,---,0.00,VWS V14.01,2013-06-09 12:27:00,
2013-06-09 22:32:00,56.7,53.2,29.97,NW,315,0.9,1.1,88,0.00,,---,0.00,VWS V14.01,2013-06-09 12:32:00,
2013-06-09 22:37:00,56.7,53.5,29.97,NNW,338,0.0,0.9,89,0.00,,---,0.00,VWS V14.01,2013-06-09 12:37:00,
2013-06-09 22:42:00,56.5,53.3,29.97,NNW,338,0.0,0.0,89,0.00,,---,0.00,VWS V14.01,2013-06-09 12:42:00,
2013-06-09 22:47:00,56.5,53.3,29.97,NE,45,0.9,2.5,89,0.00,,---,0.00,VWS V14.01,2013-06-09 12:47:00,
2013-06-09 22:52:00,56.7,53.5,29.97,NNE,22,0.0,1.6,89,0.00,,---,0.00,VWS V14.01,2013-06-09 12:52:00,
2013-06-09 22:57:00,56.7,53.5,29.97,North,0,0.0,1.6,89,0.00,,---,0.00,VWS V14.01,2013-06-09 12:57:00,
2013-06-09 23:02:00,56.7,53.5,29.97,North,0,1.1,2.5,89,0.00,,---,0.00,VWS V14.01,2013-06-09 13:02:00,
2013-06-09 23:07:00,56.7,53.8,29.94,NW,315,0.0,0.0,90,0.00,,---,0.00,VWS V14.01,2013-06-09 13:07:00,
2013-06-09 23:12:00,56.7,53.8,29.94,NNW,338,2.0,2.0,90,0.00,,---,0.00,VWS V14.01,2013-06-09 13:12:00,
2013-06-09 23:17:00,56.5,53.6,29.94,NW,315,0.0,0.0,90,0.00,,---,0.00,VWS V14.01,2013-06-09 13:17:00,
2013-06-09 23:22:00,56.5,53.6,29.94,North,0,0.0,0.0,90,0.00,,---,0.00,VWS V14.01,2013-06-09 13:22:00,
2013-06-09 23:27:00,56.5,53.6,29.94,NNE,22,0.0,0.0,90,0.00,,---,0.00,VWS V14.01,2013-06-09 13:27:00,
2013-06-09 23:32:00,56.5,53.6,29.94,NW,315,1.1,1.1,90,0.00,,---,0.00,VWS V14.01,2013-06-09 13:32:00,
2013-06-09 23:37:00,56.5,53.6,29.94,North,0,0.0,0.0,90,0.00,,---,0.00,VWS V14.01,2013-06-09 13:37:00,
2013-06-09 23:42:00,56.5,53.6,29.94,NW,315,2.0,2.0,90,0.00,,---,0.00,VWS V14.01,2013-06-09 13:42:00,
2013-06-09 23:47:00,56.5,53.6,29.94,NNW,338,0.0,0.0,90,0.00,,---,0.00,VWS V14.01,2013-06-09 13:47:00,
2013-06-09 23:52:00,56.5,53.6,29.94,NNW,338,1.1,1.1,90,0.00,,---,0.00,VWS V14.01,2013-06-09 13:52:00,
2013-06-09 23:57:00,56.5,53.6,29.94,NW,315,0.9,0.9,90,0.00,,---,0.00,VWS V14.01,2013-06-09 13:57:00,